Location: Helsinki
(60.1699°N, 24.9384°E)
Time: 23:57:06
(UTC+02:00)

A-11 Canister half - Pass Details

Date: 03 November 2020
Orbit: 1516 x 1684 km, 47.2° (Epoch: 26 November)

Event Time Altitude Azimuth Distance (km) Brightness Sun altitude
Rises 00:53:34 0° 276° (W) 4,909 - -44.1°
Reaches altitude 10° 00:57:30 10° 264° (W) 3,898 - -43.9°
Maximum altitude 01:04:49 24° 215° (SW) 2,884 - -43.6°
Drops below altitude 10° 01:11:58 10° 167° (SSE) 3,791 - -43.3°
Sets 01:15:45 0° 154° (SSE) 4,746 - -43.1°
